TimeCDT,TemperatureF,Dew PointF,Humidity,Sea Level PressureIn,VisibilityMPH,Wind Direction,Wind SpeedMPH,Gust SpeedMPH,PrecipitationIn,Events,Conditions,WindDirDegrees,DateUTC
12:10 AM,46.4,46.4,100,29.82,1.2,NNW,9.2,-,N/A,,Overcast,330,2012-10-24 05:10:00
12:13 AM,46.4,46.4,100,29.82,3.0,NW,8.1,-,N/A,,Overcast,320,2012-10-24 05:13:00
12:24 AM,48.2,48.2,100,29.83,5.0,NW,5.8,-,N/A,,Overcast,320,2012-10-24 05:24:00
12:36 AM,48.2,46.4,93,29.82,5.0,NNW,6.9,-,N/A,,Overcast,330,2012-10-24 05:36:00
12:53 AM,48.0,46.9,96,29.84,7.0,NNW,6.9,-,N/A,,Overcast,340,2012-10-24 05:53:00
1:15 AM,46.4,44.6,93,29.82,10.0,NNW,9.2,-,N/A,,Scattered Clouds,340,2012-10-24 06:15:00
1:53 AM,48.0,44.1,86,29.81,10.0,North,18.4,24.2,N/A,,Clear,360,2012-10-24 06:53:00
2:53 AM,46.9,43.0,86,29.80,10.0,North,13.8,24.2,N/A,,Clear,10,2012-10-24 07:53:00
3:50 AM,46.4,44.6,93,29.80,10.0,North,12.7,-,N/A,,Mostly Cloudy,10,2012-10-24 08:50:00
3:53 AM,46.9,44.1,90,29.80,10.0,North,10.4,-,N/A,,Mostly Cloudy,10,2012-10-24 08:53:00
4:20 AM,46.4,44.6,93,29.81,10.0,NNE,17.3,23.0,N/A,,Overcast,20,2012-10-24 09:20:00
4:53 AM,46.9,45.0,93,29.82,7.0,North,12.7,-,N/A,,Overcast,10,2012-10-24 09:53:00
5:53 AM,46.9,45.0,93,29.84,6.0,North,11.5,-,N/A,,Overcast,10,2012-10-24 10:53:00
6:53 AM,46.9,45.0,93,29.87,7.0,NNW,13.8,-,N/A,,Overcast,340,2012-10-24 11:53:00
7:53 AM,46.9,45.0,93,29.86,5.0,North,11.5,-,N/A,,Overcast,350,2012-10-24 12:53:00
8:53 AM,44.1,42.1,93,29.88,4.0,North,15.0,21.9,N/A,,Overcast,350,2012-10-24 13:53:00
9:53 AM,45.0,43.0,93,29.90,5.0,North,13.8,19.6,N/A,,Overcast,10,2012-10-24 14:53:00
10:53 AM,48.2,42.8,82,29.88,9.0,NNW,10.4,-,N/A,,Overcast,340,2012-10-24 15:53:00
11:32 AM,50.0,42.8,76,29.86,10.0,North,16.1,-,N/A,,Overcast,360,2012-10-24 16:32:00
11:41 AM,50.0,42.8,76,29.85,10.0,North,16.1,-,N/A,,Overcast,350,2012-10-24 16:41:00
11:51 AM,50.0,42.8,76,29.85,10.0,North,17.3,-,N/A,,Overcast,350,2012-10-24 16:51:00
11:53 AM,50.0,43.0,77,29.86,10.0,North,15.0,-,N/A,,Overcast,360,2012-10-24 16:53:00
12:53 PM,53.1,42.1,66,29.85,10.0,North,12.7,-,N/A,,Overcast,350,2012-10-24 17:53:00
1:53 PM,54.0,39.9,59,29.83,10.0,North,16.1,24.2,N/A,,Overcast,10,2012-10-24 18:53:00
2:53 PM,55.0,39.9,57,29.81,10.0,North,17.3,23.0,N/A,,Overcast,10,2012-10-24 19:53:00
3:53 PM,54.0,39.0,57,29.80,10.0,North,15.0,21.9,N/A,,Overcast,10,2012-10-24 20:53:00
4:53 PM,53.1,37.0,55,29.81,10.0,NNE,15.0,21.9,N/A,,Overcast,20,2012-10-24 21:53:00
5:53 PM,52.0,37.0,57,29.83,10.0,NNE,12.7,-,N/A,,Overcast,20,2012-10-24 22:53:00
6:53 PM,50.0,35.1,57,29.83,10.0,NNE,20.7,26.5,N/A,,Overcast,20,2012-10-24 23:53:00
7:53 PM,48.2,30.2,50,29.83,10.0,NNE,18.4,27.6,N/A,,Overcast,20,2012-10-25 00:53:00
8:53 PM,46.0,32.0,58,29.89,10.0,North,18.4,24.2,N/A,,Overcast,360,2012-10-25 01:53:00
9:53 PM,44.1,28.9,55,29.88,10.0,North,20.7,27.6,N/A,,Overcast,360,2012-10-25 02:53:00
10:53 PM,43.0,30.0,60,29.89,10.0,North,18.4,29.9,N/A,,Overcast,360,2012-10-25 03:53:00
11:53 PM,39.0,32.0,76,29.89,10.0,NNW,20.7,33.4,N/A,,Overcast,340,2012-10-25 04:53:00